Location: Buckenweiler
(49.0667°N, 10.2500°E)
Time: 07:40:01
(UTC+00:00)

Gblst 52 Del rocket - Pass Details

Date: 18 January 2026
Orbit: 805 x 1364 km, 51.5° (Epoch: 15 February)

Event Time Altitude Azimuth Distance (km) Brightness Sun altitude
Exits shadow 05:04:20 37° 274° (W) 1,242 4.5 -19.4°
Maximum altitude 05:06:23 61° 210° (SSW) 910 4.2 -19.1°
Drops below altitude 10° 05:11:51 10° 131° (SE) 2,421 7.5 -18.2°
Sets 05:14:23 0° 128° (SE) 3,394 8.5 -17.8°
